DW4657 Weather Reports


Display with metric or nautical units.
time (UTC)temp
F
wind
direction
speed
MPH
gust
MPH
rain 1hr
in
rain 24hr
in
rain mn
in
humidity
%
barometer
mb
20260508164018 61 139 3.0 11.0 0.00 0.00 0.00 38 1008.7
20260508163518 61 219 3.0 12.0 0.00 0.00 0.00 41 1008.6
20260508163037 61 293 2.0 12.0 0.00 0.00 0.00 42 1008.7
20260508162518 61 200 4.0 11.0 0.00 0.00 0.00 38 1008.7
20260508162017 61 91 3.0 7.0 0.00 0.00 0.00 39 1008.7
20260508161542 60 113 3.0 6.0 0.00 0.00 0.00 39 1008.7
20260508161018 60 280 2.0 5.0 0.00 0.00 0.00 40 1008.8
20260508160517 60 250 2.0 5.0 0.00 0.00 0.00 39 1008.9
20260508160047 61 245 2.0 6.0 0.00 0.00 0.00 40 1009.0
20260508155518 60 306 3.0 6.0 0.00 0.00 0.00 39 1008.9
20260508155018 60 264 2.0 11.0 0.00 0.00 0.00 41 1009.1
20260508154544 60 264 5.0 11.0 0.00 0.00 0.00 39 1009.2
20260508154020 60 281 3.0 11.0 0.00 0.00 0.00 38 1009.2
20260508153522 59 15 3.0 11.0 0.00 0.00 0.00 41 1009.2
20260508153038 59 177 3.0 8.0 0.00 0.00 0.00 38 1009.3
20260508152518 59 208 3.0 10.0 0.00 0.00 0.00 39 1009.3
20260508152018 59 199 1.0 10.0 0.00 0.00 0.00 39 1009.2
20260508151537 59 269 2.0 10.0 0.00 0.00 0.00 38 1009.2
20260508151022 59 143 3.0 10.0 0.00 0.00 0.00 38 1009.4
20260508150519 59 273 4.0 8.0 0.00 0.00 0.00 37 1009.3
20260508150037 59 298 3.0 7.0 0.00 0.00 0.00 39 1009.4
20260508145518 59 312 2.0 8.0 0.00 0.00 0.00 40 1009.4
20260508145020 59 259 3.0 8.0 0.00 0.00 0.00 38 1009.1
20260508144536 58 4 1.0 5.0 0.00 0.00 0.00 41 1009.3
20260508144018 58 292 2.0 5.0 0.00 0.00 0.00 41 1009.4
20260508143517 58 287 1.0 6.0 0.00 0.00 0.00 41 1009.4
20260508143047 58 145 1.0 12.0 0.00 0.00 0.00 42 1009.3
20260508142519 57 303 2.0 12.0 0.00 0.00 0.00 43 1009.4
20260508142018 57 206 2.0 11.0 0.00 0.00 0.00 40 1009.5
20260508141539 57 10 2.0 11.0 0.00 0.00 0.00 42 1009.6
20260508141020 57 207 3.0 9.0 0.00 0.00 0.00 41 1009.5
20260508140518 57 206 2.0 6.0 0.00 0.00 0.00 43 1009.7
20260508140042 57 42 2.0 6.0 0.00 0.00 0.00 43 1009.8
20260508135518 57 266 1.0 6.0 0.00 0.00 0.00 43 1009.7
20260508135018 56 219 1.0 5.0 0.00 0.00 0.00 43 1009.8
20260508134541 56 20 1.0 7.0 0.00 0.00 0.00 46 1009.8
20260508134018 56 35 3.0 7.0 0.00 0.00 0.00 45 1009.9
20260508133520 56 282 3.0 6.0 0.00 0.00 0.00 41 1010.1
20260508133037 56 25 2.0 7.0 0.00 0.00 0.00 43 1010.0
20260508132521 56 299 2.0 7.0 0.00 0.00 0.00 45 1010.0
20260508132018 56 0 1.0 10.0 0.00 0.00 0.00 45 1009.8
20260508131539 55 163 1.0 10.0 0.00 0.00 0.00 44 1010.0
20260508131020 55 24 2.0 5.0 0.00 0.00 0.00 45 1009.9
20260508130519 55 23 1.0 7.0 0.00 0.00 0.00 46 1010.0
20260508130051 54 297 2.0 7.0 0.00 0.00 0.00 46 1010.0
20260508125518 55 206 2.0 6.0 0.00 0.00 0.00 48 1010.0
20260508125018 54 149 0.0 1.0 0.00 0.00 0.00 51 1010.0
20260508124542 53 0 0.0 3.0 0.00 0.00 0.00 50 1010.1
20260508124019 53 32 0.0 3.0 0.00 0.00 0.00 52 1010.1
20260508123519 52 30 1.0 2.0 0.00 0.00 0.00 50 1010.2
20260508123050 52 350 1.0 2.0 0.00 0.00 0.00 50 1010.3
20260508122518 52 260 0.0 1.0 0.00 0.00 0.00 51 1010.1
20260508122018 52 260 0.0 1.0 0.00 0.00 0.00 51 1010.2
20260508121542 52 256 0.0 1.0 0.00 0.00 0.00 54 1010.2
20260508121020 52 0 0.0 2.0 0.00 0.00 0.00 57 1010.1
20260508120518 51 239 0.0 2.0 0.00 0.00 0.00 55 1010.1
20260508120037 51 289 1.0 2.0 0.00 0.00 0.00 55 1010.3
20260508115518 51 300 0.0 5.0 0.00 0.04 0.00 57 1010.3
20260508115018 50 265 1.0 5.0 0.00 0.04 0.00 59 1010.3
20260508114546 49 0 0.0 1.0 0.00 0.04 0.00 61 1010.3
20260508114018 49 0 0.0 1.0 0.00 0.04 0.00 63 1010.4
20260508113518 47 144 0.0 1.0 0.00 0.04 0.00 65 1010.3
20260508113036 46 0 0.0 1.0 0.00 0.04 0.00 67 1010.2
20260508112517 46 0 0.0 2.0 0.00 0.04 0.00 68 1010.2
20260508112018 45 0 0.0 2.0 0.00 0.04 0.00 69 1010.1
20260508111542 45 0 0.0 3.0 0.00 0.04 0.00 69 1010.2
20260508111020 44 0 1.0 4.0 0.00 0.04 0.00 70 1010.1
20260508110518 44 252 0.0 4.0 0.00 0.04 0.00 71 1010.1
20260508110040 42 184 0.0 2.0 0.00 0.04 0.00 74 1010.1
20260508105521 41 0 0.0 1.0 0.00 0.05 0.00 76 1010.0
20260508105018 41 0 0.0 0.0 0.00 0.05 0.00 76 1009.9
20260508104543 41 0 0.0 1.0 0.00 0.05 0.00 76 1009.9
20260508104018 41 0 0.0 1.0 0.00 0.05 0.00 76 1009.9
20260508103518 41 0 0.0 0.0 0.00 0.05 0.00 77 1009.8
20260508103043 40 0 0.0 1.0 0.00 0.05 0.00 78 1009.8
20260508102519 40 0 0.0 1.0 0.00 0.05 0.00 78 1009.6
20260508102018 40 0 0.0 1.0 0.00 0.05 0.00 79 1009.6
20260508101541 40 0 0.0 1.0 0.00 0.05 0.00 80 1009.7
20260508101017 39 0 0.0 1.0 0.00 0.05 0.00 81 1009.6
20260508100522 39 293 0.0 1.0 0.00 0.05 0.00 82 1009.7
20260508100040 38 0 0.0 0.0 0.00 0.05 0.00 82 1009.4
20260508095520 38 0 0.0 0.0 0.00 0.07 0.00 83 1009.4
20260508095018 38 0 0.0 1.0 0.00 0.07 0.00 83 1009.2
20260508094543 38 0 0.0 1.0 0.00 0.07 0.00 83 1009.2
20260508094017 38 0 0.0 0.0 0.00 0.07 0.00 82 1009.2
20260508093518 38 0 0.0 0.0 0.00 0.07 0.00 83 1009.2
20260508093042 38 0 0.0 0.0 0.00 0.07 0.00 82 1009.2
20260508092522 38 0 0.0 0.0 0.00 0.07 0.00 82 1009.2
20260508092024 38 0 0.0 0.0 0.00 0.07 0.00 82 1009.1
20260508091550 38 0 0.0 0.0 0.00 0.07 0.00 82 1009.2
20260508091018 38 0 0.0 0.0 0.00 0.07 0.00 82 1009.2
20260508090519 37 295 0.0 0.0 0.00 0.07 0.00 82 1009.1
20260508090052 37 0 0.0 0.0 0.00 0.07 0.00 83 1009.1
20260508085522 37 0 0.0 0.0 0.00 0.19 0.00 83 1009.1
20260508085021 38 0 0.0 0.0 0.00 0.19 0.00 83 1009.1
20260508084535 38 0 0.0 0.0 0.00 0.19 0.00 82 1009.2
20260508084017 38 0 0.0 0.0 0.00 0.19 0.00 82 1009.0
20260508083518 38 0 0.0 0.0 0.00 0.19 0.00 81 1009.0
20260508083040 38 0 0.0 0.0 0.00 0.19 0.00 81 1008.8
20260508082521 38 0 0.0 0.0 0.00 0.19 0.00 81 1008.7
20260508082018 38 0 0.0 0.0 0.00 0.19 0.00 81 1008.7
20260508081541 38 0 0.0 0.0 0.00 0.19 0.00 80 1008.6
20260508081022 38 0 0.0 0.0 0.00 0.19 0.00 80 1008.5
20260508080517 39 0 0.0 0.0 0.00 0.19 0.00 79 1008.3
20260508080042 39 0 0.0 0.0 0.00 0.19 0.00 79 1008.2
20260508075519 39 0 0.0 0.0 0.00 0.28 0.00 77 1008.3
20260508075017 39 0 0.0 0.0 0.00 0.28 0.00 77 1008.2
20260508074539 39 0 0.0 0.0 0.00 0.28 0.00 76 1008.0
20260508074018 40 0 0.0 0.0 0.00 0.28 0.00 75 1007.8
20260508073521 40 0 0.0 0.0 0.00 0.28 0.00 75 1007.8
20260508073044 40 0 0.0 0.0 0.00 0.28 0.00 74 1007.7
20260508072518 41 0 0.0 0.0 0.00 0.28 0.00 73 1007.6
20260508072018 41 0 0.0 0.0 0.00 0.28 0.00 72 1007.5
20260508071546 41 0 0.0 0.0 0.00 0.28 0.00 71 1007.4
20260508071018 42 0 0.0 0.0 0.00 0.28 0.00 70 1007.4
20260508070520 42 0 0.0 0.0 0.00 0.28 0.00 69 1007.2
20260508070051 42 0 0.0 0.0 0.00 0.28 0.00 69 1007.3
20260508065522 43 0 0.0 0.0 0.00 0.28 0.00 67 1007.4
20260508065021 43 0 0.0 0.0 0.00 0.28 0.00 66 1007.4
20260508064542 44 0 0.0 0.0 0.00 0.28 0.00 64 1007.5
20260508064021 44 0 0.0 0.0 0.00 0.28 0.00 62 1007.5
20260508063518 44 0 0.0 0.0 0.00 0.28 0.00 64 1007.5
20260508063038 44 0 0.0 0.0 0.00 0.28 0.00 65 1007.5
20260508062517 45 0 0.0 0.0 0.00 0.28 0.00 64 1007.6
20260508062018 45 0 0.0 0.0 0.00 0.28 0.00 62 1007.4
20260508061537 46 0 0.0 1.0 0.00 0.28 0.00 61 1007.3
20260508061019 46 0 0.0 1.0 0.00 0.28 0.00 59 1007.4
20260508060520 46 0 0.0 1.0 0.00 0.28 0.00 59 1007.5
20260508060039 46 0 0.0 1.0 0.00 0.28 0.00 60 1007.5
20260508055518 47 0 0.0 1.0 0.00 0.28 0.00 59 1007.6
20260508055021 47 0 0.0 1.0 0.00 0.28 0.00 57 1007.6
20260508054543 47 301 0.0 1.0 0.00 0.28 0.00 56 1007.5
20260508054018 48 301 0.0 1.0 0.00 0.28 0.00 56 1007.5
20260508053521 48 0 0.0 1.0 0.00 0.28 0.00 55 1007.5
20260508053038 48 301 0.0 1.0 0.00 0.28 0.00 55 1007.4
20260508052519 49 0 0.0 2.0 0.00 0.28 0.00 54 1007.4
20260508052018 49 301 0.0 3.0 0.00 0.28 0.00 53 1007.5
20260508051540 49 250 1.0 3.0 0.00 0.28 0.00 52 1007.6
20260508051018 50 297 1.0 3.0 0.00 0.28 0.00 52 1007.5
20260508050518 50 294 0.0 3.0 0.00 0.28 0.00 53 1007.4
20260508050039 50 0 1.0 3.0 0.00 0.28 0.00 52 1007.5
20260508045521 50 295 1.0 3.0 0.00 0.28 0.00 51 1007.5
20260508045017 50 295 1.0 3.0 0.00 0.28 0.00 52 1007.5
20260508044537 50 294 0.0 2.0 0.00 0.28 0.00 52 1007.5
20260508044017 50 277 0.0 2.0 0.00 0.28 0.00 53 1007.6
20260508043517 50 0 0.0 3.0 0.00 0.28 0.00 53 1007.6
20260508043038 50 0 0.0 3.0 0.00 0.28 0.00 52 1007.6
20260508042517 50 0 0.0 3.0 0.00 0.28 0.00 53 1007.6
20260508042018 50 241 0.0 5.0 0.00 0.28 0.00 53 1007.6
20260508041539 50 293 1.0 5.0 0.00 0.28 0.00 52 1007.6
20260508041018 50 0 0.0 3.0 0.00 0.28 0.00 54 1007.7
20260508040518 50 0 1.0 3.0 0.00 0.28 0.00 53 1007.8
20260508040037 50 0 0.0 2.0 0.00 0.28 0.00 54 1007.8
20260508035519 50 295 0.0 2.0 0.00 0.28 0.28 54 1007.7
20260508035018 50 0 0.0 2.0 0.00 0.28 0.28 55 1007.6
20260508034540 50 252 0.0 2.0 0.00 0.28 0.28 56 1007.7
20260508034018 50 0 0.0 2.0 0.00 0.28 0.28 55 1007.6
20260508033518 50 245 0.0 2.0 0.00 0.28 0.28 56 1007.7
20260508033058 49 0 0.0 2.0 0.00 0.28 0.28 57 1007.6
20260508032518 49 252 0.0 2.0 0.00 0.28 0.28 58 1007.6
20260508032018 49 267 0.0 1.0 0.00 0.28 0.28 63 1007.6
20260508031538 49 0 0.0 0.0 0.00 0.28 0.28 63 1007.6
20260508031018 49 0 0.0 0.0 0.00 0.28 0.28 64 1007.7
20260508030517 49 0 0.0 1.0 0.00 0.28 0.28 63 1007.7
20260508030038 49 0 0.0 1.0 0.00 0.28 0.28 62 1007.7
20260508025521 48 276 0.0 0.0 0.00 0.28 0.28 62 1007.8
20260508025019 48 0 0.0 0.0 0.00 0.28 0.28 62 1007.8
20260508024540 49 0 0.0 0.0 0.00 0.28 0.28 62 1007.7
20260508024018 49 0 0.0 1.0 0.00 0.28 0.28 60 1007.7
20260508023518 49 0 0.0 1.0 0.00 0.28 0.28 58 1007.8
20260508023040 49 0 0.0 0.0 0.00 0.28 0.28 62 1007.7
20260508022521 49 0 0.0 1.0 0.00 0.28 0.28 59 1007.7
20260508022019 50 0 0.0 1.0 0.00 0.28 0.28 59 1007.8
20260508021537 50 0 0.0 0.0 0.00 0.28 0.28 59 1008.0
20260508021018 50 0 0.0 1.0 0.00 0.28 0.28 58 1007.9
20260508020517 50 0 0.0 1.0 0.00 0.28 0.28 55 1008.0
20260508020048 51 0 0.0 0.0 0.00 0.28 0.28 54 1008.0
20260508015517 51 0 0.0 0.0 0.00 0.28 0.28 53 1007.9
20260508015018 52 0 0.0 0.0 0.00 0.28 0.28 52 1007.8
20260508014538 52 0 0.0 1.0 0.00 0.28 0.28 51 1007.9
20260508014018 52 0 0.0 1.0 0.00 0.28 0.28 51 1007.7
20260508013519 53 0 0.0 1.0 0.00 0.28 0.28 49 1007.6
20260508013037 53 0 0.0 2.0 0.00 0.28 0.28 49 1007.6
20260508012518 53 300 0.0 2.0 0.00 0.28 0.28 49 1007.6
20260508012019 53 278 0.0 2.0 0.00 0.28 0.28 48 1007.6
20260508011541 53 276 0.0 2.0 0.00 0.28 0.28 49 1007.6
20260508011018 53 0 0.0 1.0 0.00 0.28 0.28 49 1007.3
20260508010518 53 300 0.0 3.0 0.00 0.28 0.28 49 1007.4
20260508010038 53 0 0.0 3.0 0.00 0.28 0.28 50 1007.4
20260508005518 53 0 0.0 1.0 0.00 0.28 0.28 51 1007.4
20260508005018 54 0 0.0 2.0 0.00 0.28 0.28 48 1007.3
20260508004538 54 0 0.0 2.0 0.00 0.28 0.28 50 1007.1
20260508004019 54 252 0.0 2.0 0.00 0.28 0.28 49 1007.0
20260508003517 54 275 0.0 2.0 0.00 0.28 0.28 48 1006.9
20260508003038 55 281 0.0 1.0 0.00 0.28 0.28 47 1006.7
20260508002517 55 248 0.0 4.0 0.00 0.28 0.28 47 1006.6
20260508002017 55 0 0.0 4.0 0.00 0.28 0.28 46 1006.6
20260508001548 55 291 0.0 4.0 0.00 0.28 0.28 45 1006.6
20260508001017 55 0 0.0 1.0 0.00 0.28 0.28 45 1006.5
20260508000518 56 244 0.0 1.0 0.00 0.28 0.28 44 1006.5
20260508000037 56 0 0.0 2.0 0.00 0.28 0.28 43 1006.5
20260507235519 56 244 0.0 2.0 0.00 0.30 0.28 44 1006.4
20260507235020 57 0 0.0 2.0 0.00 0.30 0.28 43 1006.4
20260507234539 57 8 0.0 2.0 0.00 0.30 0.28 42 1006.4
20260507234017 57 250 0.0 2.0 0.00 0.30 0.28 42 1006.3
20260507233518 58 309 1.0 2.0 0.00 0.30 0.28 40 1006.3
20260507233037 58 278 0.0 3.0 0.00 0.30 0.28 40 1006.1
20260507232518 58 0 0.0 3.0 0.00 0.30 0.28 39 1006.2
20260507232017 59 0 0.0 3.0 0.00 0.30 0.28 40 1006.0
20260507231537 59 297 1.0 4.0 0.00 0.30 0.28 38 1006.0
20260507231017 59 284 1.0 4.0 0.00 0.30 0.28 40 1006.0
20260507230518 59 283 1.0 3.0 0.00 0.30 0.28 37 1005.9
20260507230038 60 0 1.0 5.0 0.00 0.30 0.28 37 1005.9
20260507225517 60 297 1.0 5.0 0.00 0.33 0.28 37 1005.8
20260507225022 60 276 1.0 4.0 0.00 0.33 0.28 36 1005.9
20260507224537 60 252 1.0 4.0 0.00 0.33 0.28 36 1005.7
20260507224021 61 297 1.0 5.0 0.00 0.33 0.28 37 1005.6
20260507223520 61 6 2.0 5.0 0.00 0.33 0.28 35 1005.5
20260507223039 61 118 2.0 5.0 0.00 0.33 0.28 36 1005.4
20260507222518 61 264 0.0 4.0 0.00 0.33 0.28 37 1005.5
20260507222017 61 278 1.0 8.0 0.00 0.33 0.28 37 1005.4
20260507221538 61 283 2.0 8.0 0.00 0.33 0.28 37 1005.4
20260507221018 62 12 2.0 9.0 0.00 0.33 0.28 36 1005.4
20260507220520 62 348 2.0 9.0 0.00 0.33 0.28 36 1005.4
20260507220038 62 347 1.0 10.0 0.00 0.33 0.28 37 1005.5
20260507215522 62 359 3.0 10.0 0.00 0.34 0.28 36 1005.3
20260507215020 62 28 1.0 6.0 0.00 0.34 0.28 36 1005.3
20260507214540 62 283 1.0 5.0 0.00 0.34 0.28 38 1005.3
20260507214020 63 333 1.0 5.0 0.00 0.34 0.28 36 1005.2
20260507213521 63 221 3.0 6.0 0.00 0.34 0.28 34 1005.2
20260507213044 63 312 3.0 6.0 0.00 0.34 0.28 36 1005.1
20260507212521 63 274 1.0 3.0 0.00 0.34 0.28 36 1004.9
20260507212024 64 18 1.0 6.0 0.00 0.34 0.28 36 1005.0
20260507211544 64 301 2.0 6.0 0.00 0.34 0.28 34 1005.1
20260507211018 64 300 1.0 5.0 0.00 0.34 0.28 35 1004.9
20260507210521 65 347 2.0 5.0 0.00 0.34 0.28 35 1005.0
20260507210042 65 0 2.0 6.0 0.00 0.34 0.28 34 1004.8
20260507205518 65 24 2.0 6.0 0.00 0.35 0.28 35 1004.8
20260507205018 65 30 2.0 6.0 0.00 0.35 0.28 36 1004.8
20260507204541 65 225 2.0 8.0 0.00 0.35 0.28 35 1004.8
20260507204020 65 295 3.0 8.0 0.00 0.35 0.28 35 1004.8
20260507203519 66 285 1.0 6.0 0.00 0.35 0.28 36 1004.7
20260507203038 66 268 1.0 6.0 0.00 0.35 0.28 35 1004.8
20260507202518 65 245 1.0 5.0 0.00 0.35 0.28 36 1004.7
20260507202020 65 319 2.0 6.0 0.00 0.35 0.28 37 1004.6
20260507201543 65 23 1.0 7.0 0.00 0.35 0.28 37 1004.7
20260507201020 65 15 2.0 9.0 0.00 0.35 0.28 38 1004.6
20260507200520 66 35 3.0 9.0 0.00 0.35 0.28 34 1004.7
20260507200042 65 23 3.0 7.0 0.00 0.35 0.28 36 1004.7
20260507195523 65 236 2.0 5.0 0.00 0.37 0.28 38 1004.8
20260507195020 65 37 2.0 6.0 0.00 0.37 0.28 35 1004.9
20260507194536 66 23 1.0 6.0 0.00 0.37 0.28 35 1005.0
20260507194017 65 25 2.0 6.0 0.00 0.37 0.28 37 1005.0
20260507193518 65 18 1.0 7.0 0.00 0.37 0.28 38 1005.2
20260507193042 65 284 2.0 7.0 0.00 0.37 0.28 34 1005.1
20260507192523 66 243 2.0 7.0 0.00 0.37 0.28 36 1005.3
20260507192017 66 278 2.0 8.0 0.00 0.37 0.28 37 1005.3
20260507191542 66 59 3.0 8.0 0.00 0.37 0.28 38 1005.3
20260507191018 65 349 1.0 7.0 0.00 0.37 0.28 38 1005.4
20260507190521 65 219 3.0 6.0 0.00 0.37 0.28 37 1005.3
20260507190038 65 282 2.0 5.0 0.00 0.37 0.28 37 1005.5
20260507185519 65 7 2.0 9.0 0.00 0.37 0.28 41 1005.4
20260507185024 65 255 2.0 9.0 0.00 0.37 0.28 41 1005.6
20260507184537 65 262 1.0 5.0 0.00 0.37 0.28 40 1005.6
20260507184020 65 28 1.0 10.0 0.00 0.37 0.28 40 1005.7
20260507183519 65 337 3.0 10.0 0.00 0.37 0.28 39 1005.6
20260507183048 65 326 3.0 7.0 0.00 0.37 0.28 41 1005.7
20260507182519 65 293 2.0 9.0 0.00 0.37 0.28 41 1005.8
20260507182020 65 210 2.0 9.0 0.00 0.37 0.28 41 1005.8
20260507181532 65 295 2.0 9.0 0.00 0.37 0.28 41 1005.8
20260507181022 64 164 1.0 9.0 0.00 0.37 0.28 40 1005.9
20260507180524 64 269 2.0 8.0 0.00 0.37 0.28 38 1005.9
20260507180048 64 280 3.0 6.0 0.00 0.37 0.28 38 1005.9
20260507175519 64 296 2.0 8.0 0.00 0.37 0.28 40 1006.0
20260507175024 64 26 2.0 9.0 0.00 0.37 0.28 41 1005.9
20260507174540 64 260 4.0 11.0 0.00 0.37 0.28 39 1006.0
20260507174019 64 63 4.0 11.0 0.00 0.37 0.28 37 1006.0
20260507173523 64 354 2.0 8.0 0.00 0.37 0.28 44 1006.1
20260507173053 64 293 1.0 8.0 0.00 0.37 0.28 46 1005.9
20260507172520 64 356 3.0 11.0 0.00 0.37 0.28 47 1005.9
20260507172020 64 188 3.0 11.0 0.00 0.37 0.28 42 1006.1
20260507171538 63 275 2.0 8.0 0.00 0.37 0.28 55 1006.1
20260507171019 63 267 3.0 8.0 0.00 0.37 0.28 50 1006.3
20260507170521 63 238 4.0 9.0 0.00 0.37 0.28 52 1006.2
20260507170047 63 256 3.0 9.0 0.00 0.37 0.28 49 1006.4
20260507165519 63 116 3.0 7.0 0.00 0.37 0.28 57 1006.4
20260507165019 63 225 3.0 6.0 0.00 0.37 0.28 54 1006.4
20260507164532 63 177 3.0 8.0 0.00 0.37 0.28 56 1006.4